Lexington Weather

Lexington, Massachusetts, USA

68°F
9/23/2021 5:37am 
  • Lexington Conditions: Mostly cloudy
  • Temperature: 67.5°F / 19.7°CWarmer 0.6°F than last hour.
  • Dew Point: 66.6°FIncreased 0.6°Fsince last hour.
  • Relative Humidity: 97
  • Wind: Calm, 10-min avg: Calm, gust: 3 mph
  • Barometer: 30.03 in Steady
  • Visibility: 10 miles
  • Rain Today: 0.00 in
  •   

Regional Weather Roundup
for Boston / Norton, MA

        
000
ASUS41 KBOX 200904
RWRBOX

REGIONAL WEATHER ROUNDUP
NATIONAL WEATHER SERVICE BOSTON/NORTON MA
500 AM EDT MON SEP 20 2021

NOTE:  "FAIR" INDICATES FEW OR NO CLOUDS BELOW 12,000 FEET WITH NO 
SIGNIFICANT WEATHER AND/OR OBSTRUCTIONS TO VISIBILITY.

MAZALL-201000-
EASTERN MASSACHUSETTS
  
CITY           SKY/WX    TMP DP  RH WIND       PRES   REMARKS
BOSTON         PTCLDY    59  53  80 N3        30.30R                  
BEVERLY          N/A     52  51  97 CALM      30.29R                  
LAWRENCE       CLEAR     53  52  96 CALM      30.32R                  
BEDFORD        FOG       50  50 100 CALM      30.29R VSB 1/2          
BLUE HILL      NOT AVBL                                               
NORWOOD        CLOUDY    49  46  90 CALM      30.29R                  
MARSHFIELD     CLEAR     52  50  93 CALM      30.29R                  
PLYMOUTH       CLEAR     50  48  93 CALM      30.29R                  
TAUNTON        CLEAR     46  44  93 CALM      30.29R                  
NEW BEDFORD    CLEAR     49  48  97 CALM      30.28R                  
$$

MAZALL-201000-
CAPE COD AND THE ISLANDS
  
CITY           SKY/WX    TMP DP  RH WIND       PRES   REMARKS
FALMOUTH       CLEAR     48  48 100 CALM      30.27S                  
HYANNIS        CLEAR     48  46  93 CALM      30.27R                  
CHATHAM        CLEAR     56  53  90 N5        30.29R                  
PROVINCETOWN   CLEAR     48  47  96 NE3       30.30R                  
NANTUCKET      CLEAR     57  53  86 NE6       30.27S                  
MARTHAS VNYRD  CLEAR     45  43  93 N5        30.27S                  
$$
 
MAZALL-201000-
CENTRAL AND WESTERN MASSACHUSETTS
  
CITY           SKY/WX    TMP DP  RH WIND       PRES   REMARKS
WORCESTER      CLEAR     54  49  83 CALM      30.30R                  
FITCHBURG      CLEAR     49  47  93 CALM      30.31R                  
ORANGE         CLEAR     47  46  97 CALM      30.32R                  
SPRINGFIELD    CLEAR     49  49  99 CALM      30.29R                  
WESTFIELD      CLEAR     51  51 100 CALM      30.30R                  
NORTH ADAMS    CLEAR     47  44  90 CALM      30.31R                  
PITTSFIELD     CLEAR     46  45  96 CALM      30.29R FOG              
$$
 
RIZALL-201000-
RHODE ISLAND
  
CITY           SKY/WX    TMP DP  RH WIND       PRES   REMARKS
PROVIDENCE     CLEAR     54  52  93 W3        30.29R                  
NEWPORT        CLEAR     53  51  93 N3        30.28R                  
SMITHFIELD     CLEAR     50  50 100 CALM      30.30R                  
WESTERLY       CLEAR     50  50 100 CALM      30.28R                  
$$
 
CTZALL-201000-
CONNECTICUT
  
CITY           SKY/WX    TMP DP  RH WIND       PRES   REMARKS
BRADLEY INTL   CLEAR     52  51  97 NW3       30.29R                  
HARTFORD       CLEAR     55  52  89 CALM      30.29R                  
BRIDGEPORT     CLEAR     59  54  83 N3        30.28R                  
DANBURY        CLEAR     53  49  86 CALM      30.29S                  
GROTON         CLEAR     54  53  97 N3        30.28R                  
NEW HAVEN      CLEAR     58  55  90 N7        30.28R                  
CHESTER        FAIR      55  55 100 CALM      30.29R                  
MERIDEN        PTCLDY    54  52  93 CALM      30.29R                  
WILLIMANTIC    MOCLDY    51  50  96 CALM      30.30R                  
OXFORD         CLEAR     52  51  97 CALM      30.29R                  
$$

MEZ002-015-021-024-NHZ003-005-008-011-012-014-VTZ005-008-201000-
NORTHERN NEW ENGLAND
  
CITY           SKY/WX    TMP DP  RH WIND       PRES   REMARKS
PORTLAND ME    CLEAR     48  47  96 NW6       30.31R                  
BANGOR ME      CLEAR     44  44 100 CALM      30.32R                  
CONCORD NH     CLEAR     46  45  96 CALM      30.32R                  
MANCHESTER NH  CLEAR     54  50  86 N5        30.29R                  
NASHUA NH      CLEAR     50  50 100 NW3       30.31R                  
PORTSMOUTH NH  CLEAR     51  49  95 W3        30.32R                  
JAFFREY NH     CLEAR     47  47 100 CALM      30.31R                  
KEENE NH       FOG       48  48 100 S3        30.32R VSB 1/4          
BURLINGTON VT  CLEAR     49  46  90 E3        30.29S                  
MT. WASHINGTON PTCLDY    46   0  14 NW21        N/A                   
$$

NYZ052-076-201000-
EASTERN NEW YORK
  
CITY           SKY/WX    TMP DP  RH WIND       PRES   REMARKS
ALBANY         PTCLDY    48  48 100 CALM      30.29S                  
NEW YORK CITY  PTCLDY    66  54  65 NE3       30.26R                  
$$
 
ANZALL-201000-
MARINE OBSERVATIONS
  
STATION/POSITION TIME  TEMP    WIND        PRES    VSBY  WAVE
                       AIR SEA DIR/SP/G                  HT/PER
                 (UTC) (F)     (DEG/KT/KT) (MB)    (MI)  (FT/S)
BOSTON BUOY      0850      65  340/  4/  4 1026.3R         3/ 9
BUZZARDS BAY     0800          100/  5/  5 1026.0F
NANTUCKET SOUND  0850   67 72   40/  8/ 10 1025.0R         1/ 7
MASS BAY-STELLWA 0804   62     360/  4/  6 1025.4R  1 7/8  3/ 8
ISLE OF SHOALS   0800   60      30/  5/  5 1025.2R
S OF BLOCK IS    0826      71                N/A           2/ 7
$$

......................KEY.........................
  SKY/WX - SKY CONDITION/PRESENT WEATHER
  TMP    - TEMPERATURE IN FAHRENHEIT
  DWPT   - DEWPOINT IN FAHRENHEIT
  RH     - RELATIVE HUMIDITY IN PERCENT
  WIND   - DIRECTION AND SPEED IN MPH
  PRES   - MEAN SEA LEVEL PRESSURE IN INCHES OF HG
  WCI    - WIND CHILL INDEX
  VSB    - VISIBILITY IN MILES
  HX     - HEAT INDEX
  TC     - TEMPERATURE IN CELSIUS
  VRB    - VARIABLE WIND DIRECTION
  N/A    - NOT AVAILABLE
  
      

Other recent Regional Weather Roundups

Thu Sep 23, 5:04am

Thu Sep 23, 4:04am

Thu Sep 23, 3:04am

Thu Sep 23, 2:04am

Thu Sep 23, 1:04am

Thu Sep 23, 12:04am

Wed Sep 22, 11:04pm

Wed Sep 22, 10:04pm

Wed Sep 22, 9:04pm

Wed Sep 22, 8:04pm

Wed Sep 22, 7:04pm

Wed Sep 22, 6:04pm

Wed Sep 22, 5:04pm

Wed Sep 22, 4:04pm

Wed Sep 22, 3:04pm

Wed Sep 22, 2:04pm

Wed Sep 22, 1:04pm

Wed Sep 22, 12:05pm

Wed Sep 22, 11:04am

Wed Sep 22, 10:04am

Wed Sep 22, 9:04am

Wed Sep 22, 8:04am

Wed Sep 22, 7:04am

Wed Sep 22, 6:04am

Wed Sep 22, 5:04am

Wed Sep 22, 4:04am

Wed Sep 22, 3:04am

Wed Sep 22, 2:04am

Wed Sep 22, 1:04am

Wed Sep 22, 12:04am

Tue Sep 21, 11:04pm

Tue Sep 21, 10:04pm

Tue Sep 21, 9:04pm

Tue Sep 21, 8:04pm

Tue Sep 21, 7:04pm

Tue Sep 21, 6:04pm

Tue Sep 21, 5:04pm

Tue Sep 21, 4:04pm

Tue Sep 21, 3:04pm

Tue Sep 21, 2:04pm

Tue Sep 21, 1:04pm

Tue Sep 21, 12:04pm

Tue Sep 21, 11:04am

Tue Sep 21, 10:04am

Tue Sep 21, 9:04am

Tue Sep 21, 8:04am

Tue Sep 21, 7:04am

Tue Sep 21, 6:04am

Tue Sep 21, 5:04am

Tue Sep 21, 4:04am

Tue Sep 21, 3:04am

Tue Sep 21, 2:04am

Tue Sep 21, 1:04am

Tue Sep 21, 12:04am

Mon Sep 20, 11:04pm

Mon Sep 20, 10:04pm

Mon Sep 20, 9:04pm

Mon Sep 20, 8:04pm

Mon Sep 20, 7:04pm

Mon Sep 20, 6:04pm

Mon Sep 20, 5:04pm

Mon Sep 20, 4:04pm

Mon Sep 20, 3:04pm

Mon Sep 20, 2:04pm

Mon Sep 20, 1:04pm

Mon Sep 20, 12:04pm

Mon Sep 20, 11:04am

Mon Sep 20, 10:04am

Mon Sep 20, 9:04am

Mon Sep 20, 7:04am

Mon Sep 20, 6:04am

Mon Sep 20, 4:04am

Mon Sep 20, 3:04am

Mon Sep 20, 2:04am

Mon Sep 20, 1:04am

Mon Sep 20, 12:04am

Sun Sep 19, 11:04pm

Sun Sep 19, 10:04pm

Sun Sep 19, 9:04pm

Sun Sep 19, 8:04pm

Sun Sep 19, 7:04pm

Sun Sep 19, 6:04pm

Sun Sep 19, 5:04pm

Sun Sep 19, 4:04pm

Sun Sep 19, 3:04pm

Sun Sep 19, 2:05pm

Sun Sep 19, 1:04pm

Sun Sep 19, 12:04pm

Sun Sep 19, 11:04am

Sun Sep 19, 10:05am

Sun Sep 19, 9:04am

Sun Sep 19, 8:04am

Sun Sep 19, 7:04am

Sun Sep 19, 6:04am

Sun Sep 19, 5:04am

Sun Sep 19, 4:04am

Sun Sep 19, 3:04am

Sun Sep 19, 2:04am

Sun Sep 19, 1:04am

Sun Sep 19, 12:04am

Sat Sep 18, 11:05pm

Sat Sep 18, 10:04pm

Sat Sep 18, 9:04pm

Sat Sep 18, 8:04pm

Sat Sep 18, 7:04pm

Sat Sep 18, 6:04pm

Sat Sep 18, 5:04pm

Sat Sep 18, 4:04pm

Sat Sep 18, 3:04pm

Sat Sep 18, 2:04pm

Sat Sep 18, 1:04pm

Sat Sep 18, 12:04pm

Sat Sep 18, 11:04am

Sat Sep 18, 10:04am

Sat Sep 18, 9:04am

Sat Sep 18, 8:04am

Sat Sep 18, 7:04am

Sat Sep 18, 6:04am

Sat Sep 18, 5:04am

Sat Sep 18, 4:04am

Sat Sep 18, 3:04am

Sat Sep 18, 2:04am

Sat Sep 18, 1:04am

Sat Sep 18, 12:04am

Fri Sep 17, 11:04pm

Fri Sep 17, 10:04pm

Fri Sep 17, 9:04pm

Fri Sep 17, 8:04pm

Fri Sep 17, 7:04pm

Fri Sep 17, 6:04pm

Fri Sep 17, 5:04pm

Fri Sep 17, 4:04pm

Fri Sep 17, 3:04pm

Fri Sep 17, 2:04pm

Fri Sep 17, 1:04pm

Fri Sep 17, 12:05pm

Fri Sep 17, 11:04am

Fri Sep 17, 10:04am

Fri Sep 17, 9:04am

Fri Sep 17, 8:04am

Fri Sep 17, 7:04am

Fri Sep 17, 6:04am

Fri Sep 17, 5:04am

Fri Sep 17, 4:04am

Fri Sep 17, 3:04am

Fri Sep 17, 2:04am

Fri Sep 17, 1:04am

Fri Sep 17, 12:04am

Thu Sep 16, 11:04pm

Thu Sep 16, 10:04pm

Thu Sep 16, 9:04pm

Thu Sep 16, 8:04pm

Thu Sep 16, 7:04pm

Thu Sep 16, 6:04pm

Thu Sep 16, 5:04pm

Thu Sep 16, 4:04pm

Thu Sep 16, 3:04pm

Thu Sep 16, 2:04pm

Thu Sep 16, 1:05pm

Thu Sep 16, 12:04pm

Thu Sep 16, 11:05am

Thu Sep 16, 10:05am

Thu Sep 16, 9:04am

Thu Sep 16, 8:04am

Thu Sep 16, 7:04am

Thu Sep 16, 6:04am

Meta data:

ID: 19e895c6-0856-4d37-a8ad-cce578d27799
Link: https://api.weather.gov/products/19e895c6-0856-4d37-a8ad-cce578d27799